Orbital Elements at Epoch 2459200.5 (2020-Dec-17.0) TDB
Reference: JPL 13 (heliocentric ecliptic J2000)
Element | Value | Uncertainty (1-sigma) | Units |
e | .3150856974575466 | 4.2294e-08 | |
a | 3.114639625929434 | 1.7958e-08 | au |
q | 2.133261227064546 | 1.3622e-07 | au |
i | 12.88338459867823 | 5.1784e-06 | deg |
node | 213.0622355219277 | 2.3996e-05 | deg |
peri | 180.9033808831689 | 2.7316e-05 | deg |
M | 350.0389445385097 | 1.0318e-05 | deg |
tp | 2459256.053700251565 (2021-Feb-10.55370025) | 5.7609e-05 | TDB |
period | 2007.752307763081 5.50 | 1.7364e-05 4.754e-08 | d yr |
n | .1793049862814456 | 1.5507e-09 | deg/d |
Q | 4.096018024794322 | 2.3616e-08 | au |
|
| | Orbit Determination Parameters
Additional Information
|